Regional Weather Roundup
Issued by NWS Charleston, SC

Current Version | Previous Version | Graphics & Text | Print | Product List | Glossary On
Versions: 1 2 3 4 5 6 7 8 9 10 11 12 13 14 15 16 17 18 19 20 21 22 23 24 25 26 27 28 29 30 31 32 33 34 35 36 37 38 39 40 41 42 43 44 45 46 47 48 49 50
000 ASUS42 KCHS 051027 RWRCHS REGIONAL WEATHER ROUNDUP NATIONAL WEATHER SERVICE CHARLESTON SC 600 AM EDT WED AUG 05 2015 NOTE: "FAIR" INDICATES FEW OR NO CLOUDS BELOW 12,000 FEET WITH NO SIGNIFICANT WEATHER AND/OR OBSTRUCTIONS TO VISIBILITY. NOT ALL STATIONS ARE QUALITY CONTROLLED BY THE NATIONAL WEATHER SERVICE. USE DATA WITH CAUTION...ESPECIALLY DEWPOINT OBSERVATIONS. SCZ027-030-031-034>040-042>050-051100- ...SOUTHEAST SOUTH CAROLINA... CITY SKY/WX TMP DP RH WIND PRES REMARKS N CHARLESTON MOCLDY 76 72 87 SW5 30.02R WATERFRONT PRK N/A 79 74 85 VRB3 29.99S MOUNT PLEASANT FAIR 79 73 83 SW5 30.02R JOHNS ISLAND FAIR 77 75 94 CALM 30.03R PINOPOLIS NOT AVBL MONCKS CORNER FAIR 77 72 83 SW3 30.01S SUMMERVILLE FAIR 75 73 94 CALM 30.03R BEAUFORT MCAS PTCLDY 76 73 91 SW7 30.03R BEAUFORT ARPT FAIR 77 73 88 CALM 30.03R HILTON HEAD IS NOT AVBL WALTERBORO MOSUNNY 77 72 83 SW5 30.03R ALLENDALE FAIR 75 73 94 CALM 30.02R ...SOUTHERN MIDLANDS AND PEE DEE... CITY SKY/WX TMP DP RH WIND PRES REMARKS GEORGETOWN NOT AVBL KINGSTREE NOT AVBL ORANGEBURG CLEAR 76 72 87 W3 30.01S BARNWELL FAIR 75 73 94 W3 30.02S AIKEN FAIR 72 68 88 SW5 30.06R MANNING RAIN 77 72 83 SW3 30.01R COLUMBIA CLEAR 77 68 73 W5 29.99S SUMTER CLEAR 78 71 78 SW6 29.98R FLORENCE PTCLDY 78 74 87 SW6 29.99R MYRTLE BEACH PTCLDY 79 73 83 W7 30.01R N MYRTLE BEACH CLEAR 79 75 87 SW6 29.99R $$ GAZ063-065-086>088-099>101-113>116-118-119-134>141-150-051100- ...SOUTHEAST GEORGIA... CITY SKY/WX TMP DP RH WIND PRES REMARKS SAVANNAH ARPT PTCLDY 74 71 91 SW5 30.04R HUNTER AAF PTCLDY 75 75 100 SW3 30.02R FORT STEWART NOT AVBL STATESBORO CLEAR 75 75 100 CALM 30.03S SYLVANIA SUNNY 75 75 98 CALM 30.04S CLAXTON NOT AVBL ...CSRA...CENTRAL AND FAR SOUTHEAST GEORGIA... CITY SKY/WX TMP DP RH WIND PRES REMARKS THOMSON CLEAR 76 74 92 CALM 30.06S AUGUSTA-BUSH CLEAR 73 71 93 CALM 30.01S AUGUSTA-DANIEL CLEAR 77 71 82 VRB3 30.02S SWAINSBORO FAIR N/A N/A N/A CALM 30.04R VIDALIA CLEAR 73 73 100 SW5 30.04S EASTMAN FAIR 74 74 100 CALM 30.06S FOG HAZLEHURST FAIR 76 76 100 CALM 30.04R ALMA PTCLDY 73 72 96 CALM 30.05R WAYCROSS CLEAR 77 77 100 CALM 30.06R JESUP PTSUNNY 73 73 100 SW3 30.06R BAXLEY FAIR 75 73 94 CALM 30.05R BRUNSWICK PTCLDY 75 73 94 SW3 30.06S SAINT SIMONS CLEAR 77 75 93 SW8 30.05S $$ SCZ027-028-034-036>038-045-046-048>050-GAZ119-141-051100- ...LAKE AND SUPPLEMENTAL COASTAL OBSERVATIONS... STATION/POSITION TIME TEMP WIND PRES WAVE SWELL AIR SEA DIR/SP/G HT/PER HT/PER/DIR (UTC) (F) (DEG/KT/KT) (MB) (FT/S) (FT/S/D) UPR LAKE MARION NOT AVBL WINYAH BAY 0945 78 230/ 6 1015.0S LAKE MURRAY 0900 82 260/ 7/ 11 1015.2R ACE BASIN NERRS NOT AVBL FORT PULASKI 1000 77 85 230/ 5/ 7 1017.6R SAPELO ISLAND 1000 77 210/ 7 1018.0R $$ ANZ835-935-AMZ111-154-330-350-352-354-370-450-454-472-051100- ...C-MAN AND BUOY OBSERVATIONS... STATION/POSITION TIME TEMP WIND PRES WAVE SWELL AIR SEA DIR/SP/G HT/PER HT/PER/DIR (UTC) (F) (DEG/KT/KT) (MB) (FT/S) (FT/S/D) BUOY 41004 0950 82 82 240/ 14/ 16 1016.1R 3/ 4 2/ 6 BUOY 41008 0950 81 83 230/ 12/ 16 1017.6R 2/ 3 2/140/ 8 FOLLY BEACH CMAN 1000 78 230/ 4/ 5 1016.8R CAPERS NEARSHORE 0908 83 260/ 14/ 17 1016.5S FRIPP NEARSHORE 0900 82 260/ 10/ 14 1016.5R STATION/POSITION TIME TEMP WIND PRES WAVE SWELL AIR SEA DIR/SP/G HT/PER HT/PER/DIR (UTC) (F) (DEG/KT/KT) (MB) (FT/S) (FT/S/D) 5E ST. MARYS GA 0921 82 N/A 2/12 FRYING PAN BUOY 0950 83 81 240/ 14/ 16 1016.1R 6/ 7 3/170/ 7 BUOY 41025 0950 80 84 270/ 14/ 16 1015.0R 6/ 6 3/180/ 8 CAPE LOOKOUT NC 1000 80 260/ 12/ 14 1015.1R BUOY 41002 0950 83 81 230/ 14/ 16 1018.4R 6/ 8 3/260/ 8 BUOY 41010 0920 83 85 220/ 10/ 12 1019.2R ST AUGUSTINE FL 1000 75 76 220/ 6/ 7 1019.3R $$

USA.gov is the U.S. government's official web portal to all federal, state and local government web resources and services.